Location: Krasnoyarskiy Pitomnik
(51.1333°N, 71.6167°E)
Time: 19:08:38
(UTC+00:00)

Vanguard 2 - Pass Details

Date: 22 April 2024
Orbit: 553 x 2914 km, 32.9° (Epoch: 22 May)

Event Time Altitude Azimuth Distance (km) Brightness Sun altitude
Exits shadow 21:52:02 21° 224° (SW) 4,497 10.7 -17.4°
Maximum altitude 22:02:02 40° 173° (S) 3,794 10.7 -16.3°
Drops below altitude 10° 22:17:17 10° 113° (ESE) 5,553 12.2 -14.6°
Sets 22:21:41 0° 107° (ESE) 6,386 12.7 -14.1°
